Home > Weather > Qatif > Past weeks

Flag for Saudi Arabia Past Weather in Qatif, Saudi Arabia — Yesterday and Last 2 Weeks

Now
99 °F

Sunny.


Feels Like: 112 °F
Forecast: 85 / 106 °F
Wind: 9 mph from Northeast

Location: King Fahd International Airport

Current Time: Jul 27, 2016 at 6:41:26 PM

Latest Report: Jul 27, 2016 at 6:00 PM


Visibility: 5 mi

Pressure: 29.47 "Hg

Humidity: 47%

Dew Point: 75 °F

Location of QatifLocation

Past Weather in Qatif — Graph

°F

Qatif Temperature Yesterday

Maximum temperature yesterday: 108 °F (at 12:00 PM)
Minimum temperature yesterday: 88 °F (at 3:00 AM)
Average temperature yesterday: 96 °F

High & Low Weather Summary for the Past Weeks

 TemperatureHumidityPressure
High118 °F (Jul 20, 12:00 PM)84% (Jul 20, 5:00 AM)29.53 "Hg (Jul 20, 5:00 AM)
Low81 °F (Jul 18, 6:00 AM)5% (Jul 14, 1:00 PM)29.36 "Hg (Jul 23, 12:00 PM)
Average99 °F34%29.45 "Hg
* Reported Jul 12 5:00 PM — Jul 27 5:00 PM, Qatif, Weather by CustomWeather, © 2016

Note: Actual official high and low records may vary slightly from our data, if they occured in-between our weather recording intervals... More about our weather records

Advertising

Qatif Weather History for the Previous 24 Hours

Scroll right to see more
 ConditionsComfort  
Time TempWeatherWind HumidityBarometerVisibility
5:00 PM
Wed, Jul 27
100 °FSunny.12 mph45%29.47 "Hg5 mi
4:00 PM102 °FSunny.13 mph42%29.47 "Hg5 mi
3:00 PM104 °FSunny.13 mph45%29.47 "Hg5 mi
2:00 PM106 °FSunny.14 mph34%29.47 "Hg5 mi
1:00 PM109 °FSunny.8 mph28%29.47 "Hg5 mi
12:00 PM108 °FSunny.3 mph32%29.47 "Hg5 mi
11:00 AM104 °FSunny.3 mph35%29.50 "Hg5 mi
10:00 AM99 °FSunny.8 mph42%29.53 "Hg5 mi
9:00 AM95 °FSunny.3 mph50%29.53 "Hg4 mi
8:00 AM90 °FSunny.No wind75%29.53 "Hg3 mi
7:00 AM86 °FHaze.2 mph79%29.50 "Hg3 mi
6:00 AM82 °FFog.No wind84%29.50 "Hg2 mi
5:00 AM84 °FFog.No wind79%29.50 "Hg3 mi
4:00 AM84 °FClear.No wind79%29.47 "Hg4 mi
3:00 AM86 °FClear.No wind75%29.47 "Hg4 mi
2:00 AM86 °FClear.3 mph75%29.47 "Hg4 mi
1:00 AM88 °FClear.6 mph75%29.47 "Hg4 mi
12:00 AM88 °FClear.3 mph75%29.47 "Hg5 mi
11:00 PM
Tue, Jul 26
90 °FClear.5 mph75%29.47 "Hg5 mi
10:00 PM91 °FClear.3 mph71%29.47 "Hg5 mi
9:00 PM93 °FClear.5 mph67%29.47 "Hg5 mi
8:00 PM95 °FClear.8 mph63%29.47 "Hg5 mi
7:00 PM97 °FClear.9 mph56%29.47 "Hg4 mi
6:00 PM97 °FSunny.10 mph60%29.45 "Hg5 mi
Weather by CustomWeather, © 2016

See weather overviewHow to use our weather pages